Погода в Камышлове

Россия / Свердловская область     56°50′47″N   62°42′44″E
темп.,
°C
ветер,
м/с
пор.,
м/с
влажн.,
%
обл.,
%
осадки,
мм/ч
давл.,
гПа
погр.,
м
5 марта, пт
пт523:00−10юз499044 0.0 998141
02:00−10ююз5129270 0.1 996268
05:00−6ю7139485 1.5 993614
08:00−6юз7158583 0.8 991418
11:00−3зюз8148166 0.8 9941095
14:00−2зюз7108096 0.0 9961157
17:00−3зюз4108297 0.0 998460
20:00−5зюз3588100 0.0 99793
6 марта, сб
сб623:00−8зсз4988100 0.0 999197
02:00−11з5119063 0.0 1001255
05:00−13з5138831 0.0 1005296
08:00−14зюз511910 0.0 1006245
11:00−10зюз611860 0.0 1007577
14:00−6зюз7118058 0.0 10071333
17:00−6зюз6118179 0.2 1007957
20:00−10зюз478878 0.0 1008117
7 марта, вс
вс723:00−14з339384 0.0 101035
02:00−17з339010 0.0 101122
05:00−19зюз23935 0.0 101220
08:00−21зюз22941 0.0 101220
11:00−15зюз23866 0.0 1011226
14:00−11ссз018251 0.0 1010336
17:00−11в118975 0.0 1008113
20:00−15с1290100 0.0 100821
8 марта, пн
пн823:00−17ссз349793 0.0 100728
02:00−19сз349610 0.0 100839
05:00−21зсз349818 0.0 100959
08:00−22з34969 0.0 100946
11:00−16зюз34884 0.0 1010242
14:00−12ю468868 0.0 1009416
17:00−11ю6108784 0.0 1007606
20:00−12ю51093100 0.1 1006335
9 марта, вт
вт923:00−11ююз5119293 0.1 1006253
02:00−11ююз479240 0.0 1006136
05:00−10ююв5119370 0.0 1003350
08:00−5ю81593100 0.9 1000798
11:00−4зюз8137494 0.9 10001325
14:00−3юз7117644 0.0 10011266
17:00−4зюз498272 0.1 1001841
20:00−8з4786100 0.0 1003121